Change the Weather History Date:

Tuesday, October 30, 2012

  Actual Average Record
Temperature  
Mean Temperature 56 °F -  
Max Temperature 80 °F 68 °F 82 °F (2010)
Min Temperature 33 °F 39 °F 30 °F (1996)
Degree Days  
Heating Degree Days 8    
Growing Degree Days 6 (Base 50)    
Moisture  
Dew Point 23 °F    
Average Humidity 34    
Maximum Humidity 70    
Minimum Humidity 11    
Precipitation  
Precipitation 0.00 in - - ()
Sea Level Pressure  
Sea Level Pressure 30.15 in    
Wind  
Wind Speed 3 mph (West)    
Max Wind Speed 15 mph    
Max Gust Speed 23 mph    
Visibility 10 miles    
Events      
Averages and records for this station are not official NWS values.
T = Trace of Precipitation, MM = Missing Value Source: NWS Daily Summary

Daily Weather History Graph

Daily Weather History Graph

Search for Another Location

Airport or City:

Trip Planner

Search our weather history database for the weather conditions in past years. The results will help you decide how hot, cold, wet, or windy it might be!

Date:

Astronomy

Oct. 30, 2012 Rise Set
Actual Time 8:09 AM CDT 7:09 PM CDT
Civil Twilight 7:44 AM CDT 7:34 PM CDT
Nautical Twilight 7:16 AM CDT 8:02 PM CDT
Astronomical Twilight 6:48 AM CDT 8:30 PM CDT
Moon 7:47 PM CDT (10/30) 8:52 AM CDT (10/30)
Length of Visible Light 11h 49m
Length of Day
11h 00m
Full, 99% of the Moon is Illuminated
Oct 30
Full
Nov 6
Last Quarter
Nov 13
New
Nov 20
First Quarter
Nov 28
Full

Hourly Weather History & Observations

Time (CDT) Temp. Dew Point Humidity Pressure Visibility Wind Dir Wind Speed Gust Speed Precip Events Conditions
12:15 AM 42.8 °F 26.6 °F 53% 30.19 in 10.0 mi Calm Calm - N/A   Clear
12:35 AM 41.0 °F 24.8 °F 53% 30.19 in 10.0 mi Calm Calm - N/A   Clear
12:55 AM 42.8 °F 26.6 °F 53% 30.18 in 10.0 mi Calm Calm - N/A   Clear
1:15 AM 42.8 °F 26.6 °F 53% 30.18 in 10.0 mi Calm Calm - N/A   Clear
1:35 AM 41.0 °F 24.8 °F 53% 30.18 in 10.0 mi Calm Calm - N/A   Clear
1:55 AM 42.8 °F 24.8 °F 49% 30.18 in 10.0 mi Calm Calm - N/A   Clear
2:55 AM 37.4 °F 24.8 °F 60% 30.17 in 10.0 mi Calm Calm - N/A   Clear
3:15 AM 39.2 °F 24.8 °F 56% 30.17 in 10.0 mi Calm Calm - N/A   Clear
3:55 AM 37.4 °F 23.0 °F 56% 30.16 in 10.0 mi Calm Calm - N/A   Clear
4:15 AM 39.2 °F 26.6 °F 61% 30.15 in 10.0 mi Calm Calm - N/A   Clear
4:35 AM 37.4 °F 26.6 °F 65% 30.15 in 10.0 mi Calm Calm - N/A   Clear
4:55 AM 37.4 °F 26.6 °F 65% 30.15 in 10.0 mi Calm Calm - N/A   Clear
5:15 AM 37.4 °F 26.6 °F 65% 30.15 in 10.0 mi Calm Calm - N/A   Clear
5:35 AM 37.4 °F 24.8 °F 60% 30.15 in 10.0 mi Calm Calm - N/A   Clear
5:55 AM 33.8 °F 24.8 °F 70% 30.15 in 10.0 mi Calm Calm - N/A   Clear
6:15 AM 33.8 °F 23.0 °F 65% 30.15 in 10.0 mi Calm Calm - N/A   Clear
6:35 AM 33.8 °F 23.0 °F 65% 30.15 in 10.0 mi Calm Calm - N/A   Clear
6:55 AM 35.6 °F 24.8 °F 65% 30.15 in 10.0 mi Calm Calm - N/A   Clear
7:15 AM 35.6 °F 24.8 °F 65% 30.15 in 10.0 mi Calm Calm - N/A   Clear
7:35 AM 35.6 °F 24.8 °F 65% 30.15 in 10.0 mi Calm Calm - N/A   Clear
7:55 AM 35.6 °F 24.8 °F 65% 30.16 in 10.0 mi Calm Calm - N/A   Clear
8:35 AM 35.6 °F 24.8 °F 65% 30.17 in 10.0 mi Calm Calm - N/A   Clear
8:55 AM 39.2 °F 26.6 °F 61% 30.18 in 10.0 mi Calm Calm - N/A   Clear
9:15 AM 46.4 °F 28.4 °F 50% 30.18 in 10.0 mi Calm Calm - N/A   Clear
9:35 AM 53.6 °F 30.2 °F 41% 30.18 in 10.0 mi Calm Calm - N/A   Clear
9:55 AM 59.0 °F 30.2 °F 34% 30.19 in 10.0 mi Calm Calm - N/A   Clear
10:15 AM 64.4 °F 28.4 °F 26% 30.19 in 10.0 mi Calm Calm - N/A   Clear
10:35 AM 66.2 °F 28.4 °F 24% 30.19 in 10.0 mi Calm Calm - N/A   Clear
10:55 AM 71.6 °F 28.4 °F 20% 30.19 in 10.0 mi Calm Calm - N/A   Clear
11:15 AM 71.6 °F 26.6 °F 19% 30.19 in 10.0 mi West 10.4 mph - N/A   Clear
11:35 AM 73.4 °F 26.6 °F 18% 30.19 in 10.0 mi West 12.7 mph - N/A   Clear
11:55 AM 73.4 °F 26.6 °F 18% 30.19 in 10.0 mi West 12.7 mph - N/A   Clear
12:15 PM 73.4 °F 26.6 °F 18% 30.19 in 10.0 mi West 11.5 mph - N/A   Clear
12:35 PM 75.2 °F 24.8 °F 15% 30.18 in 10.0 mi West 12.7 mph 16.1 mph N/A   Clear
12:55 PM 75.2 °F 24.8 °F 15% 30.17 in 10.0 mi WNW 10.4 mph 16.1 mph N/A   Clear
1:15 PM 77.0 °F 24.8 °F 14% 30.16 in 10.0 mi West 10.4 mph - N/A   Clear
1:35 PM 77.0 °F 24.8 °F 14% 30.15 in 10.0 mi WNW 12.7 mph 17.3 mph N/A   Clear
1:55 PM 78.8 °F 23.0 °F 13% 30.15 in 10.0 mi WNW 11.5 mph - N/A   Clear
2:15 PM 78.8 °F 24.8 °F 14% 30.14 in 10.0 mi West 12.7 mph 19.6 mph N/A   Clear
2:35 PM 78.8 °F 23.0 °F 13% 30.13 in 10.0 mi West 15.0 mph 19.6 mph N/A   Clear
2:55 PM 78.8 °F 21.2 °F 12% 30.13 in 10.0 mi WNW 12.7 mph 20.7 mph N/A   Clear
3:15 PM 80.6 °F 21.2 °F 11% 30.12 in 10.0 mi West 15.0 mph - N/A   Clear
3:35 PM 78.8 °F 21.2 °F 12% 30.11 in 10.0 mi West 13.8 mph 21.9 mph N/A   Clear
3:55 PM 78.8 °F 19.4 °F 11% 30.11 in 10.0 mi West 9.2 mph 23.0 mph N/A   Clear
4:15 PM 78.8 °F 19.4 °F 11% 30.10 in 10.0 mi West 15.0 mph 20.7 mph N/A   Clear
4:35 PM 78.8 °F 19.4 °F 11% 30.10 in 9.0 mi West 9.2 mph 19.6 mph N/A   Clear
4:55 PM 78.8 °F 19.4 °F 11% 30.10 in 10.0 mi WNW 12.7 mph 19.6 mph N/A   Clear
5:15 PM 77.0 °F 17.6 °F 11% 30.10 in 10.0 mi West 10.4 mph 16.1 mph N/A   Clear
5:35 PM 77.0 °F 17.6 °F 11% 30.10 in 9.0 mi West 11.5 mph 16.1 mph N/A   Clear
5:55 PM 77.0 °F 17.6 °F 11% 30.10 in 10.0 mi West 11.5 mph - N/A   Clear
6:15 PM 75.2 °F 17.6 °F 11% 30.10 in 10.0 mi West 10.4 mph - N/A   Clear
6:35 PM 75.2 °F 15.8 °F 11% 30.11 in 10.0 mi West 9.2 mph - N/A   Clear
6:55 PM 71.6 °F 15.8 °F 12% 30.11 in 10.0 mi West 6.9 mph - N/A   Clear
7:15 PM 66.2 °F 17.6 °F 15% 30.11 in 10.0 mi WNW 8.1 mph - N/A   Clear
7:35 PM 62.6 °F 17.6 °F 18% 30.12 in 10.0 mi West 6.9 mph - N/A   Clear
7:55 PM 59.0 °F 19.4 °F 22% 30.12 in 10.0 mi WNW 9.2 mph - N/A   Clear
8:15 PM 59.0 °F 19.4 °F 22% 30.12 in 10.0 mi West 10.4 mph - N/A   Clear
8:35 PM 57.2 °F 17.6 °F 21% 30.13 in 10.0 mi WNW 10.4 mph - N/A   Clear
8:55 PM 55.4 °F 17.6 °F 23% 30.13 in 10.0 mi Calm Calm - N/A   Clear
9:15 PM 53.6 °F 17.6 °F 24% 30.14 in 10.0 mi Calm Calm - N/A   Clear
9:35 PM 51.8 °F 17.6 °F 26% 30.14 in 10.0 mi Calm Calm - N/A   Clear
9:55 PM 50.0 °F 15.8 °F 26% 30.14 in 10.0 mi Calm Calm - N/A   Clear
10:15 PM 44.6 °F 15.8 °F 31% 30.14 in 10.0 mi Calm Calm - N/A   Clear
10:35 PM 44.6 °F 17.6 °F 34% 30.14 in 10.0 mi Calm Calm - N/A   Clear
10:55 PM 44.6 °F 15.8 °F 31% 30.15 in 10.0 mi Calm Calm - N/A   Clear
11:15 PM 44.6 °F 17.6 °F 34% 30.15 in 10.0 mi Calm Calm - N/A   Clear
11:35 PM 46.4 °F 17.6 °F 32% 30.14 in 10.0 mi Calm Calm - N/A   Clear
11:55 PM 46.4 °F 17.6 °F 32% 30.14 in 10.0 mi Calm Calm - N/A   Clear